Regional Weather Roundup
Issued by NWS

Home | Current Version | Previous Version | Graphics & Text | Print | Product List | Glossary On
Versions: 1 2 3 4 5 6 7 8 9 10 11 12 13 14 15 16 17 18 19 20 21 22 23 24 25 26 27 28 29 30 31 32 33 34 35 36 37 38 39 40 41 42 43 44 45 46 47 48 49 50
000
ASUS43 KTOP 220908
RWRKS

WEATHER ROUNDUP FOR KANSAS
NATIONAL WEATHER SERVICE GOODLAND KS
300 AM CST SUN JAN 22 2017

NOTE:  "FAIR" INDICATES FEW OR NO CLOUDS BELOW 12,000 FEET WITH NO
SIGNIFICANT WEATHER AND/OR OBSTRUCTIONS TO VISIBILITY.

KSZ001>006-013>018-027>032-041>047-221000-
NORTHWEST KANSAS

CITY           SKY/WX    TMP DP  RH WIND       PRES   REMARKS
GOODLAND       CLEAR     28  25  88 W10       29.68R WCI  19
HAYS           CLEAR     36  33  89 N12       29.61  WCI  28
HILL CITY      CLEAR     34  30  85 N13       29.65R WCI  25
RUSSELL        PTCLDY    35  33  92 N12       29.59R WCI  27
$$

KSZ061>065-074>080-084>089-221000-
SOUTHWEST KANSAS

CITY           SKY/WX    TMP DP  RH WIND       PRES   REMARKS
DODGE CITY     CLOUDY    40  38  93 N15       29.60R WCI  32
ELKHART          N/A     36  28  73 NW10        N/A  WCI  28
GARDEN CITY    CLEAR     34  31  88 N14       29.63R WCI  25
GREAT BEND     MOCLDY    40  37  89 N13       29.58R WCI  32
LIBERAL          N/A     41  36  81 N14       29.63R
PRATT          DRIZZLE   39  38  94 N14G20    29.55R WCI  31
$$

KSZ066>073-081>083-090>101-221000-
SOUTHEAST KANSAS

CITY           SKY/WX    TMP DP  RH WIND       PRES   REMARKS
CHANUTE        LGT RAIN  49  46  90 NE15G21   29.46R
COFFEYVILLE    CLOUDY    49  47  93 NE14      29.41R
HUTCHINSON     CLOUDY    45  41  86 N12       29.52R
MEDICINE LODGE   N/A     44  42  93 N13       29.51R
NEWTON         LGT RAIN  44  43  96 N13       29.51R
PARSONS        RAIN      49  46  90 NE12G21   29.43S FOG
WICHITA INTL   LGT RAIN  46  44  93 N10       29.49R
WICHITA JABRA  CLOUDY    46  44  93 N8        29.49R
WICHITA MCCONL LGT RAIN  46  43  87 NE14      29.48R
WINFIELD       CLOUDY    49  45  86 N8        29.45R
$$

KSZ007>012-019>026-033>040-048>060-102>105-221000-
NORTHEAST KANSAS

CITY           SKY/WX    TMP DP  RH WIND       PRES   REMARKS
CONCORDIA      CLEAR     34  33  96 NW6       29.61R
EMPORIA        CLOUDY    45  43  93 N6        29.50R
LAWRENCE       CLOUDY    47  44  90 VRB3      29.53R
MANHATTAN      CLOUDY    44  39  82 N3        29.57R
MARYSVILLE     CLOUDY    32  32 100 N6        29.59R
OLATHE IND     CLOUDY    46  45  96 NE7       29.53R
OLATHE EXE     CLOUDY    45  45 100 NE7       29.53R
SALINA           N/A    N/A N/A N/A MISG        N/A
TOPEKA BILLARD CLOUDY    45  42  89 N7        29.54R
TOPEKA FORBES  CLOUDY    46  43  89 MISG      29.53R
$$




USA.gov is the U.S. government's official web portal to all federal, state and local government web resources and services.